Time,TemperatureF,DewpointF,PressureIn,WindDirection,WindDirectionDegrees,WindSpeedMPH,WindSpeedGustMPH,Humidity,HourlyPrecipIn,Conditions,Clouds,dailyrainin,SoftwareType,DateUTC
2013-05-24 00:14:00,61.8,61.0,29.87,SE,132,1.0,7.0,98,0.15,,,0.03,weatherlink.com 1.10,2013-05-24 04:14:00,
2013-05-24 00:29:00,61.7,61.0,29.86,SW,219,3.0,6.0,98,0.21,,,0.14,weatherlink.com 1.10,2013-05-24 04:29:00,
2013-05-24 00:44:00,61.6,61.0,29.86,SW,225,3.0,7.0,98,0.20,,,0.19,weatherlink.com 1.10,2013-05-24 04:44:00,
2013-05-24 00:59:00,61.5,61.0,29.85,SSE,149,4.0,8.0,98,0.22,,,0.22,weatherlink.com 1.10,2013-05-24 04:59:00,
2013-05-24 01:14:00,61.5,61.0,29.84,SSW,201,4.0,13.0,98,0.24,,,0.27,weatherlink.com 1.10,2013-05-24 05:14:00,
2013-05-24 01:29:00,61.8,61.0,29.84,South,181,5.0,8.0,98,0.19,,,0.34,weatherlink.com 1.10,2013-05-24 05:29:00,
2013-05-24 01:44:00,62.2,62.0,29.82,SSW,210,0.0,8.0,98,0.19,,,0.38,weatherlink.com 1.10,2013-05-24 05:44:00,
2013-05-24 01:59:00,62.2,62.0,29.82,South,174,4.0,6.0,98,0.25,,,0.47,weatherlink.com 1.10,2013-05-24 05:59:00,
2013-05-24 02:14:00,62.1,62.0,29.80,SSW,206,1.0,8.0,98,0.23,,,0.51,weatherlink.com 1.10,2013-05-24 06:14:00,
2013-05-24 02:29:00,62.6,62.0,29.80,SSW,195,6.0,7.0,98,0.18,,,0.52,weatherlink.com 1.10,2013-05-24 06:29:00,
2013-05-24 02:44:00,63.0,63.0,29.78,South,180,4.0,10.0,98,0.16,,,0.54,weatherlink.com 1.10,2013-05-24 06:44:00,
2013-05-24 02:59:00,63.1,63.0,29.76,SSE,151,3.0,9.0,98,0.08,,,0.56,weatherlink.com 1.10,2013-05-24 06:59:00,
2013-05-24 03:14:00,63.8,63.0,29.75,South,177,5.0,12.0,98,0.13,,,0.64,weatherlink.com 1.10,2013-05-24 07:14:00,
2013-05-24 03:29:00,63.8,63.0,29.74,SSW,202,4.0,14.0,98,0.26,,,0.78,weatherlink.com 1.10,2013-05-24 07:29:00,
2013-05-24 03:44:00,63.5,63.0,29.72,SSE,154,2.0,12.0,98,0.31,,,0.85,weatherlink.com 1.10,2013-05-24 07:44:00,
2013-05-24 03:59:00,63.4,63.0,29.71,SW,217,4.0,11.0,98,0.45,,,1.01,weatherlink.com 1.10,2013-05-24 07:59:00,
2013-05-24 04:14:00,63.9,63.0,29.70,SSW,202,6.0,17.0,98,0.50,,,1.15,weatherlink.com 1.10,2013-05-24 08:14:00,
2013-05-24 04:29:00,63.1,62.0,29.70,SSW,207,4.0,16.0,97,0.38,,,1.16,weatherlink.com 1.10,2013-05-24 08:29:00,
2013-05-24 04:44:00,62.4,62.0,29.70,WNW,290,4.0,13.0,97,0.31,,,1.16,weatherlink.com 1.10,2013-05-24 08:44:00,
2013-05-24 05:00:00,61.9,61.0,29.71,SE,146,1.0,9.0,97,0.12,,,1.16,weatherlink.com 1.10,2013-05-24 09:00:00,
2013-05-24 05:14:00,61.5,61.0,29.72,SSW,202,6.0,8.0,98,0.01,,,1.16,weatherlink.com 1.10,2013-05-24 09:14:00,
2013-05-24 05:29:00,61.3,61.0,29.73,South,184,1.0,6.0,98,0.00,,,1.16,weatherlink.com 1.10,2013-05-24 09:29:00,
2013-05-24 05:44:00,61.1,61.0,29.72,South,173,1.0,10.0,98,0.00,,,1.16,weatherlink.com 1.10,2013-05-24 09:44:00,
2013-05-24 05:59:00,60.8,60.0,29.72,South,169,2.0,9.0,98,0.05,,,1.21,weatherlink.com 1.10,2013-05-24 09:59:00,
2013-05-24 06:14:00,60.9,60.0,29.72,South,185,4.0,9.0,98,0.05,,,1.21,weatherlink.com 1.10,2013-05-24 10:14:00,
2013-05-24 06:29:00,61.1,61.0,29.72,SSW,199,1.0,9.0,98,0.05,,,1.21,weatherlink.com 1.10,2013-05-24 10:29:00,
2013-05-24 06:44:00,61.0,61.0,29.73,SSW,199,2.0,11.0,98,0.05,,,1.21,weatherlink.com 1.10,2013-05-24 10:44:00,
2013-05-24 06:59:00,60.9,60.0,29.73,South,183,1.0,8.0,98,0.00,,,1.21,weatherlink.com 1.10,2013-05-24 10:59:00,
2013-05-24 07:14:00,60.7,60.0,29.74,SSW,207,2.0,7.0,98,0.00,,,1.21,weatherlink.com 1.10,2013-05-24 11:14:00,
2013-05-24 07:30:00,60.2,60.0,29.74,SSW,198,0.0,7.0,98,0.00,,,1.21,weatherlink.com 1.10,2013-05-24 11:30:00,
2013-05-24 07:45:00,60.5,60.0,29.74,SSW,193,6.0,8.0,98,0.00,,,1.21,weatherlink.com 1.10,2013-05-24 11:45:00,
2013-05-24 08:00:00,60.7,60.0,29.74,SSW,199,1.0,6.0,98,0.00,,,1.21,weatherlink.com 1.10,2013-05-24 12:00:00,
2013-05-24 08:15:00,60.8,60.0,29.74,SSW,208,2.0,7.0,98,0.00,,,1.21,weatherlink.com 1.10,2013-05-24 12:15:00,
2013-05-24 08:30:00,60.9,60.0,29.75,SSW,206,1.0,5.0,98,0.00,,,1.21,weatherlink.com 1.10,2013-05-24 12:30:00,
2013-05-24 08:45:00,60.7,60.0,29.76,SSE,167,1.0,13.0,98,0.00,,,1.21,weatherlink.com 1.10,2013-05-24 12:45:00,
2013-05-24 09:00:00,60.6,60.0,29.76,SW,221,3.0,6.0,98,0.00,,,1.21,weatherlink.com 1.10,2013-05-24 13:00:00,
2013-05-24 09:15:00,60.4,60.0,29.76,South,181,1.0,7.0,98,0.00,,,1.21,weatherlink.com 1.10,2013-05-24 13:15:00,
2013-05-24 09:30:00,60.1,60.0,29.77,SSE,163,0.0,8.0,98,0.00,,,1.21,weatherlink.com 1.10,2013-05-24 13:30:00,
2013-05-24 09:45:00,59.9,59.0,29.77,SW,214,1.0,7.0,98,0.00,,,1.21,weatherlink.com 1.10,2013-05-24 13:45:00,
2013-05-24 10:00:00,59.9,59.0,29.77,SW,224,1.0,7.0,98,0.00,,,1.21,weatherlink.com 1.10,2013-05-24 14:00:00,
2013-05-24 10:15:00,60.3,60.0,29.76,South,182,2.0,6.0,98,0.00,,,1.21,weatherlink.com 1.10,2013-05-24 14:15:00,
2013-05-24 10:30:00,60.9,61.0,29.75,SW,226,1.0,3.0,99,0.01,,,1.22,weatherlink.com 1.10,2013-05-24 14:30:00,
2013-05-24 10:45:00,61.5,61.0,29.76,SW,214,1.0,1.0,98,0.01,,,1.22,weatherlink.com 1.10,2013-05-24 14:45:00,
2013-05-24 11:00:00,61.6,61.0,29.76,SSW,210,2.0,3.0,98,0.01,,,1.22,weatherlink.com 1.10,2013-05-24 15:00:00,
2013-05-24 11:15:00,61.9,61.0,29.76,SW,233,1.0,2.0,98,0.00,,,1.22,weatherlink.com 1.10,2013-05-24 15:15:00,
2013-05-24 11:30:00,62.2,61.0,29.75,SSE,166,0.0,2.0,97,0.01,,,1.23,weatherlink.com 1.10,2013-05-24 15:30:00,
2013-05-24 11:45:00,62.7,62.0,29.75,South,178,0.0,3.0,97,0.01,,,1.23,weatherlink.com 1.10,2013-05-24 15:45:00,
2013-05-24 12:00:00,62.9,62.0,29.75,South,188,2.0,2.0,97,0.02,,,1.24,weatherlink.com 1.10,2013-05-24 16:00:00,
2013-05-24 12:15:00,62.7,62.0,29.74,South,185,2.0,2.0,96,0.02,,,1.24,weatherlink.com 1.10,2013-05-24 16:15:00,
2013-05-24 12:30:00,62.3,61.0,29.75,South,173,2.0,3.0,96,0.01,,,1.24,weatherlink.com 1.10,2013-05-24 16:30:00,
2013-05-24 12:45:00,61.8,61.0,29.75,SSW,200,0.0,4.0,96,0.01,,,1.24,weatherlink.com 1.10,2013-05-24 16:45:00,
2013-05-24 13:00:00,62.0,61.0,29.75,South,187,2.0,2.0,97,0.00,,,1.24,weatherlink.com 1.10,2013-05-24 17:00:00,
2013-05-24 13:15:00,61.7,61.0,29.75,South,170,0.0,6.0,97,0.02,,,1.26,weatherlink.com 1.10,2013-05-24 17:15:00,
2013-05-24 13:30:00,61.9,61.0,29.74,South,169,0.0,2.0,97,0.04,,,1.28,weatherlink.com 1.10,2013-05-24 17:30:00,
2013-05-24 13:45:00,62.6,62.0,29.74,South,171,0.0,1.0,98,0.06,,,1.30,weatherlink.com 1.10,2013-05-24 17:45:00,
2013-05-24 14:00:00,63.0,62.0,29.75,SSE,160,1.0,3.0,97,0.06,,,1.30,weatherlink.com 1.10,2013-05-24 18:00:00,
2013-05-24 14:15:00,62.8,62.0,29.74,SSW,193,1.0,3.0,96,0.05,,,1.31,weatherlink.com 1.10,2013-05-24 18:15:00,
2013-05-24 14:30:00,62.8,62.0,29.74,South,188,0.0,3.0,96,0.03,,,1.31,weatherlink.com 1.10,2013-05-24 18:30:00,
2013-05-24 14:45:00,63.1,62.0,29.74,South,170,0.0,3.0,96,0.01,,,1.31,weatherlink.com 1.10,2013-05-24 18:45:00,
2013-05-24 15:00:00,63.5,62.0,29.73,SE,124,0.0,2.0,96,0.00,,,1.31,weatherlink.com 1.10,2013-05-24 19:00:00,
2013-05-24 15:15:00,64.2,63.0,29.73,SSE,164,0.0,3.0,96,0.00,,,1.31,weatherlink.com 1.10,2013-05-24 19:15:00,
2013-05-24 15:30:00,65.0,64.0,29.73,SSW,201,0.0,1.0,95,0.00,,,1.31,weatherlink.com 1.10,2013-05-24 19:30:00,
2013-05-24 15:45:00,64.6,63.0,29.73,SE,136,0.0,2.0,93,0.00,,,1.31,weatherlink.com 1.10,2013-05-24 19:45:00,
2013-05-24 16:00:00,64.0,63.0,29.73,ESE,110,0.0,3.0,95,0.00,,,1.31,weatherlink.com 1.10,2013-05-24 20:00:00,
2013-05-24 16:15:00,63.5,62.0,29.73,South,191,0.0,3.0,95,0.00,,,1.31,weatherlink.com 1.10,2013-05-24 20:15:00,
2013-05-24 16:30:00,64.2,63.0,29.73,South,169,0.0,1.0,96,0.00,,,1.31,weatherlink.com 1.10,2013-05-24 20:30:00,
2013-05-24 16:45:00,65.1,64.0,29.73,SE,127,0.0,2.0,95,0.00,,,1.31,weatherlink.com 1.10,2013-05-24 20:45:00,
2013-05-24 17:00:00,65.4,63.0,29.73,SSE,156,1.0,3.0,93,0.00,,,1.31,weatherlink.com 1.10,2013-05-24 21:00:00,
2013-05-24 17:15:00,62.8,61.0,29.75,SSE,153,0.0,5.0,92,0.00,,,1.31,weatherlink.com 1.10,2013-05-24 21:15:00,
2013-05-24 17:30:00,61.2,60.0,29.74,SE,132,0.0,4.0,94,0.00,,,1.31,weatherlink.com 1.10,2013-05-24 21:30:00,
2013-05-24 17:45:00,60.8,59.0,29.73,SSE,162,0.0,3.0,95,0.01,,,1.32,weatherlink.com 1.10,2013-05-24 21:45:00,
2013-05-24 18:00:00,60.8,60.0,29.72,South,176,0.0,2.0,96,0.02,,,1.33,weatherlink.com 1.10,2013-05-24 22:00:00,
2013-05-24 18:15:00,60.4,59.0,29.72,SW,219,1.0,4.0,96,0.02,,,1.33,weatherlink.com 1.10,2013-05-24 22:15:00,
2013-05-24 18:30:00,60.0,59.0,29.73,West,270,0.0,6.0,97,0.02,,,1.33,weatherlink.com 1.10,2013-05-24 22:30:00,
2013-05-24 18:45:00,59.8,59.0,29.74,South,188,0.0,2.0,97,0.01,,,1.33,weatherlink.com 1.10,2013-05-24 22:45:00,
2013-05-24 19:00:00,59.7,59.0,29.75,South,169,0.0,3.0,97,0.00,,,1.33,weatherlink.com 1.10,2013-05-24 23:00:00,
2013-05-24 19:15:00,59.6,59.0,29.75,SSE,167,1.0,4.0,97,0.00,,,1.33,weatherlink.com 1.10,2013-05-24 23:15:00,
2013-05-24 19:30:00,59.2,58.0,29.76,SSE,160,0.0,4.0,97,0.00,,,1.33,weatherlink.com 1.10,2013-05-24 23:30:00,
2013-05-24 19:45:00,59.3,59.0,29.76,SSE,167,0.0,2.0,98,0.00,,,1.33,weatherlink.com 1.10,2013-05-24 23:45:00,
2013-05-24 20:00:00,59.2,59.0,29.76,SSW,195,0.0,1.0,98,0.00,,,1.33,weatherlink.com 1.10,2013-05-25 00:00:00,
2013-05-24 20:15:00,59.2,59.0,29.75,SSW,193,0.0,1.0,98,0.00,,,1.33,weatherlink.com 1.10,2013-05-25 00:15:00,
2013-05-24 20:30:00,59.3,59.0,29.75,SSW,194,0.0,0.0,98,0.00,,,1.33,weatherlink.com 1.10,2013-05-25 00:30:00,
2013-05-24 20:45:00,59.6,59.0,29.75,NW,315,0.0,1.0,98,0.00,,,1.33,weatherlink.com 1.10,2013-05-25 00:45:00,
2013-05-24 21:00:00,59.7,59.0,29.76,NNW,334,1.0,5.0,98,0.00,,,1.33,weatherlink.com 1.10,2013-05-25 01:00:00,
2013-05-24 21:15:00,59.2,58.0,29.77,West,271,1.0,5.0,97,0.00,,,1.33,weatherlink.com 1.10,2013-05-25 01:15:00,
2013-05-24 21:30:00,58.8,58.0,29.77,NNW,346,1.0,3.0,97,0.00,,,1.33,weatherlink.com 1.10,2013-05-25 01:30:00,
2013-05-24 21:45:00,57.8,57.0,29.78,NW,304,5.0,6.0,96,0.00,,,1.33,weatherlink.com 1.10,2013-05-25 01:45:00,
2013-05-24 22:00:00,57.1,56.0,29.77,NW,309,3.0,6.0,96,0.00,,,1.33,weatherlink.com 1.10,2013-05-25 02:00:00,
2013-05-24 22:15:00,56.1,55.0,29.77,NW,307,5.0,5.0,96,0.00,,,1.33,weatherlink.com 1.10,2013-05-25 02:15:00,
2013-05-24 22:30:00,55.1,54.0,29.78,NW,321,1.0,5.0,96,0.00,,,1.33,weatherlink.com 1.10,2013-05-25 02:30:00,
2013-05-24 22:45:00,54.5,53.0,29.79,NNW,347,2.0,4.0,96,0.00,,,1.33,weatherlink.com 1.10,2013-05-25 02:45:00,
2013-05-24 23:01:00,54.3,53.0,29.78,NW,304,2.0,4.0,96,0.00,,,1.33,weatherlink.com 1.10,2013-05-25 03:01:00,
2013-05-24 23:16:00,54.2,53.0,29.78,NW,322,2.0,4.0,97,0.01,,,1.34,weatherlink.com 1.10,2013-05-25 03:16:00,
2013-05-24 23:31:00,54.2,53.0,29.78,WNW,292,1.0,4.0,97,0.01,,,1.34,weatherlink.com 1.10,2013-05-25 03:31:00,
2013-05-24 23:46:00,54.0,53.0,29.77,NNW,342,2.0,8.0,96,0.01,,,1.34,weatherlink.com 1.10,2013-05-25 03:46:00,